Location: Ergnies
(50.0854°N, 2.0375°E)
Time: 14:50:06
(UTC+00:00)

Cosmos 2228 Rocket - Visible Passes

Search period start: 11 April 2026 00:00
Search period end: 21 April 2026 00:00
Orbit: 613 x 645 km, 82.5° (Epoch: 11 April)

Date Brightness Start Highest point End Pass type
(mag) Time Alt. Az. Time Alt. Az. Time Alt. Az.
11 Apr 5.2 20:16:09 10° NNW 20:19:56 27° W 20:23:39 10° SW visible
12 Apr 5.9 20:37:32 10° NW 20:40:06 15° W 20:42:40 10° WSW visible
13 Apr 3.6 19:18:36 10° NNW 19:23:05 66° W 19:27:27 10° S visible
14 Apr 4.8 19:39:21 10° NNW 19:43:26 35° W 19:47:27 10° SSW visible
15 Apr 5.8 20:00:25 10° NW 20:03:40 20° W 20:06:52 10° SW visible
16 Apr 6.4 20:22:32 10° WNW 20:23:46 11° W 20:25:00 10° W visible
18 Apr 5.5 19:23:28 10° NNW 19:27:10 26° W 19:30:51 10° SW visible
19 Apr 6.1 19:44:52 10° NW 19:47:21 15° W 19:49:49 10° WSW visible
